Tracking 27423 objects as of 8-Jun-2023
HD Live streaming from Space Station
objects crossing your sky now

STARLINK-3917

Track STARLINK-3917 now!
10-day predictions
STARLINK-3917 is classified as:


NORAD ID: 52588
Int'l Code: 2022-051BE
Perigee: 546.1 km
Apogee: 547.6 km
Inclination: 53.2 °
Period: 95.4 minutes
Semi major axis: 6917 km
RCS: Unknown
Launch date: May 13, 2022
Source: United States (US)
Launch site: AIR FORCE WESTERN TEST RANGE (AFWTR)
Your satellite tracking list
Your tracking list is empty




NASA's NSSDC Master Catalog

Two Line Element Set (TLE):
1 52588U 22051BE  23158.80031734 -.00002439  00000-0 -13514-3 0  9990
2 52588  53.2172 314.7332 0001057  79.4953 280.6158 15.08855366 59734
Source of the keplerian elements: AFSPC